(347) Pariana
ephemeris date magn radius delta ra dec elong phase
Opposition27 Apr 202511.82.275 AU1.289 AU14h41m+00°33'164.5°6.8°
Today6 May 202511.92.285 AU1.303 AU14h33m+00°27'162.5°7.6°
(347) Pariana - 2025-05-06
astro.vanbuitenen.nl


 
-1 year
-1 month
-1 day
Now
+1 day
+1 month
+1 year

The interactive orbit chart above shows the body's path through the solar system and its position at the given date. Green and blue lines are shown perpendicular to the ecliptic plane: Green if the path is above the ecliptic plane, blue if it is below. (Left-click and drag to rotate the view; Right-click and drag to move the view; Use scroll wheel to zoom in our out.)

The orbital elements of Pariana are:

            e (Eccentricity)                : 0.1638389
            a (Semimajor axis)              : 2.6126421
            i (Inclination)                 : 11.69202
            Ω (Longitude of ascending node) : 85.21959
            ω (Argument of perihelion)      : 87.63037
            M (Mean anomaly)                : 33.87158
            Epoch                           : 2025 May 05

            L (Longitude of perihelion)     : 172.79981
            B (Latitude of perihelion)      : 11.68188
            P (Orbital period in years)     : 4.22            
        

The light curve chart below shows the estimated development of the minor planet's magnitude.


The all-sky chart below shows the path of the minor planet over the same period as the light curve. The current position is marked yellow.





The following chart shows the path of the minor planet in the next few days. The field of view is optimized for (~10x50) binoculars and finderscopes. A more printer-friendly version of the same chart can be found below.




Ephemerides:
Date       Time       RA (2000)    DEC (2000)    delta   radius  elong  phase   PA    magn
2025-05-06 00:00 UT   14 33 39.2   +00 27 10     1.303    2.285  162.5    7.6   165   11.9 
2025-05-06 08:44 UT   14 33 18.6   +00 26 36     1.304    2.286  162.3    7.7   164   11.9 
2025-05-07 00:00 UT   14 32 42.8   +00 25 32     1.306    2.287  162.0    7.9   162   11.9 
2025-05-08 00:00 UT   14 31 46.9   +00 23 42     1.309    2.288  161.3    8.1   159   12.0 
2025-05-09 00:00 UT   14 30 51.6   +00 21 40     1.312    2.289  160.6    8.4   156   12.0 
2025-05-10 00:00 UT   14 29 56.9   +00 19 26     1.316    2.291  159.9    8.7   153   12.0 
2025-05-11 00:00 UT   14 29 03.1   +00 16 60     1.320    2.292  159.2    9.0   151   12.0 
2025-05-12 00:00 UT   14 28 10.0   +00 14 22     1.324    2.293  158.4    9.3   148   12.0 
2025-05-13 00:00 UT   14 27 17.7   +00 11 32     1.328    2.295  157.6    9.7   146   12.1 
2025-05-14 00:00 UT   14 26 26.4   +00 08 30     1.333    2.296  156.7   10.0   144   12.1 
2025-05-15 00:00 UT   14 25 36.1   +00 05 17     1.337    2.297  155.9   10.4   142   12.1 
2025-05-16 00:00 UT   14 24 46.8   +00 01 52     1.342    2.299  155.0   10.7   141   12.1 
2025-05-17 00:00 UT   14 23 58.6   +00 01 45     1.348    2.300  154.1   11.1   139   12.1 
2025-05-18 00:00 UT   14 23 11.5   +00 05 33     1.353    2.301  153.2   11.4   137   12.2 
2025-05-19 00:00 UT   14 22 25.6   +00 09 32     1.359    2.303  152.3   11.8   136   12.2 
2025-05-20 00:00 UT   14 21 41.0   +00 13 43     1.364    2.304  151.4   12.1   135   12.2 
2025-05-21 00:00 UT   14 20 57.6   +00 18 05     1.370    2.305  150.4   12.5   133   12.2 
2025-05-22 00:00 UT   14 20 15.5   +00 22 38     1.377    2.307  149.5   12.9   132   12.3 
2025-05-23 00:00 UT   14 19 34.8   +00 27 22     1.383    2.308  148.6   13.2   131   12.3 
2025-05-24 00:00 UT   14 18 55.5   +00 32 16     1.390    2.310  147.6   13.6   130   12.3 
2025-05-25 00:00 UT   14 18 17.7   +00 37 21     1.397    2.311  146.7   13.9   129   12.3 
2025-05-26 00:00 UT   14 17 41.3   +00 42 37     1.404    2.312  145.7   14.3   128   12.4 
2025-05-27 00:00 UT   14 17 06.4   +00 48 03     1.411    2.314  144.8   14.6   127   12.4 
2025-05-28 00:00 UT   14 16 33.1   +00 53 40     1.419    2.315  143.8   15.0   127   12.4 
2025-05-29 00:00 UT   14 16 01.4   +00 59 26     1.426    2.317  142.9   15.3   126   12.4 
2025-05-30 00:00 UT   14 15 31.2   -01 05 22     1.434    2.318  141.9   15.7   125   12.5 
2025-05-31 00:00 UT   14 15 02.7   -01 11 28     1.442    2.320  141.0   16.0   124   12.5 
2025-06-01 00:00 UT   14 14 35.7   -01 17 42     1.451    2.321  140.0   16.3   124   12.5 
2025-06-02 00:00 UT   14 14 10.5   -01 24 07     1.459    2.322  139.1   16.6   123   12.5 
2025-06-03 00:00 UT   14 13 46.9   -01 30 39     1.468    2.324  138.1   16.9   123   12.6 
2025-06-04 00:00 UT   14 13 24.9   -01 37 21     1.476    2.325  137.2   17.2   122   12.6 
2025-06-05 00:00 UT   14 13 04.7   -01 44 11     1.485    2.327  136.3   17.5   121   12.6 


    Terminology:
            
    delta:  distance between minor planet and earth in AU
    radius: distance between minor planet and sun in AU
    magn:   magnitude (brightness) estimate    
    ra:     right ascension in hours (24h = 360deg)
    dec:    declination in degrees
    elong:  elongation in degrees (angle sun-earth-minor planet)    
    phase:  phase angle in degrees (angle sun-minor planet-earth)        
    AU:     Astronomical Unit (mean distance between earth and sun: 149597870.7 km
    

Orbital elements provided by the MPC (Minor Planet Center).
Calculations by a modified version of AAPlus, a C# implementation of the AA+ project by PJ Naughter from the algorithms presented in the book "Astronomical Algorithms" by Jean Meeus.
NGC2000 dso catalog and star labels from VizieR as provided by the Strasbourg astronomical Data Center.
Tycho2 catalog from the ESO archive.